Adana Incirlik Air Force Base, Turkey

4:45 AM EET on February 08, 2016 (GMT +0200)
Incirlik Air Base

Weather History for LTAG - November, 2012

Change the Weather History Date:

Sunday, November 4, 2012

  Actual Average Record
Temperature  
Mean Temperature 72 °F -  
Max Temperature 86 °F 71 °F - (-1)
Min Temperature 58 °F 51 °F - (-1)
Cooling Degree Days 7    
Growing Degree Days 22 (Base 50)    
Moisture  
Dew Point 54 °F    
Average Humidity 63    
Maximum Humidity 94    
Minimum Humidity 14    
Precipitation  
Precipitation 0.00 in - - ()
Sea Level Pressure  
Sea Level Pressure 30.01 in    
Wind  
Wind Speed 4 mph ()    
Max Wind Speed 8 mph    
Max Gust Speed -    
Visibility 6.0 miles    
Events      
Averages and records for this station are not official NWS values.
T = Trace of Precipitation, MM = Missing Value Source: Averaged Metar Reports

Daily Weather History Graph

Daily Weather History Graph

Search for Another Location

Airport or City:

Trip Planner

Search our weather history database for the weather conditions in past years. The results will help you decide how hot, cold, wet, or windy it might be!

Date:

Astronomy

Nov. 04, 2012 Rise Set
Actual Time 6:05 AM EET 4:37 PM EET
Civil Twilight 5:38 AM EET 5:04 PM EET
Nautical Twilight 5:07 AM EET 5:35 PM EET
Astronomical Twilight 4:37 AM EET 6:05 PM EET
Moon 8:57 PM EET (11/4) 10:34 AM EET (11/4)
Length of Visible Light 11h 26m
Length of Day
10h 32m
Waning Gibbous, 74% of the Moon is Illuminated
Nov 4
Waning Gibbous
Nov 7
Last Quarter
Nov 14
New
Nov 20
First Quarter
Nov 28
Full

Hourly Weather History & Observations

Time (EET) Temp. Heat Index Dew Point Humidity Pressure Visibility Wind Dir Wind Speed Gust Speed Precip Events Conditions
12:20 AM 64.4 °F - 57.2 °F 77% 30.01 in - NNW 2.3 mph - N/A   Clear
12:50 AM 62.6 °F - 57.2 °F 82% 30.01 in - NW 4.6 mph - N/A   Clear
1:20 AM 60.8 °F - 57.2 °F 88% 30.01 in - NW 4.6 mph - N/A   Clear
1:50 AM 62.6 °F - 57.2 °F 82% 30.01 in - ENE 2.3 mph - N/A   Clear
2:00 AM 63 °F - 57 °F 74% 30.00 in 6 mi ENE 2.3 mph - -  
2:20 AM 62.6 °F - 55.4 °F 77% 30.01 in - NNE 4.6 mph - N/A   Clear
2:50 AM 60.8 °F - 55.4 °F 82% 30.01 in - NW 3.5 mph - N/A   Clear
3:20 AM 62.6 °F - 55.4 °F 77% 30.01 in - NNW 3.5 mph - N/A   Clear
3:50 AM 60.8 °F - 55.4 °F 82% 30.01 in - North 2.3 mph - N/A   Clear
4:20 AM 59.0 °F - 53.6 °F 82% 30.01 in - NE 2.3 mph - N/A   Clear
4:50 AM 59.0 °F - 53.6 °F 82% 30.01 in - NNE 2.3 mph - N/A   Clear
5:20 AM 59.0 °F - 53.6 °F 82% 30.01 in - North 3.5 mph - N/A   Clear
5:50 AM - - - N/A% 30.01 in - NNW 4.6 mph - N/A   Clear
6:20 AM 59.0 °F - 55.4 °F 88% 30.01 in - NW 4.6 mph - N/A   Clear
6:50 AM 60.8 °F - 55.4 °F 82% 30.04 in - Calm Calm - N/A   Clear
7:20 AM 62.6 °F - 55.4 °F 77% 30.04 in - NW 3.5 mph - N/A   Clear
7:50 AM 66.2 °F - 57.2 °F 73% 30.04 in - West 3.5 mph - N/A   Clear
8:00 AM 66 °F - 56 °F 63% 30.05 in 6 mi West 3.5 mph - -  
8:20 AM 69.8 °F - 57.2 °F 64% 30.04 in - Calm Calm - N/A   Clear
8:50 AM 75.2 °F - 53.6 °F 47% 30.04 in - NNE 5.8 mph - N/A   Clear
9:20 AM 77.0 °F - 51.8 °F 41% 30.04 in - NNE 6.9 mph - N/A   Clear
9:50 AM 78.8 °F - 51.8 °F 39% 30.04 in - NE 5.8 mph - N/A   Clear
10:20 AM 80.6 °F - 51.8 °F 37% 30.04 in - North 5.8 mph - N/A   Clear
10:50 AM 82.4 °F - 51.8 °F 35% 30.04 in - North 5.8 mph - N/A   Clear
11:20 AM 82.4 °F - 50.0 °F 32% 30.04 in - NE 6.9 mph - N/A   Clear
11:50 AM 84.2 °F - 50.0 °F 30% 30.01 in - North 3.5 mph - N/A   Clear
12:20 PM 84.2 °F - 48.2 °F 29% 30.01 in - NNE 4.6 mph - N/A   Clear
1:20 PM 86.0 °F - 44.6 °F 23% 30.01 in - NE 1.2 mph - N/A   Clear
1:50 PM 86.0 °F - 44.6 °F 23% 30.01 in - SE 1.2 mph - N/A   Clear
2:00 PM 86 °F - 45 °F 14% 29.99 in 6 mi SE 1.2 mph - -  
2:20 PM 86.0 °F - 44.6 °F 23% 29.98 in - Variable 2.3 mph - N/A   Clear
2:50 PM 86.0 °F - 44.6 °F 23% 29.98 in - Variable 2.3 mph - N/A   Clear
3:20 PM 84.2 °F - 48.2 °F 29% 29.98 in - SSE 4.6 mph - N/A   Clear
3:50 PM 84.2 °F - 48.2 °F 29% 29.98 in - South 3.5 mph - N/A   Clear
4:20 PM 82.4 °F 81.7 °F 55.4 °F 39% 29.98 in - SE 3.5 mph - N/A   Clear
4:50 PM 77.0 °F - 59.0 °F 54% 30.01 in - SSW 8.1 mph - N/A   Clear
5:20 PM 73.4 °F - 60.8 °F 65% 30.01 in - SW 6.9 mph - N/A   Clear
5:50 PM 71.6 °F - 60.8 °F 69% 30.01 in - West 6.9 mph - N/A   Clear
6:20 PM 71.6 °F - 60.8 °F 69% 30.01 in - West 6.9 mph - N/A   Clear
6:50 PM 69.8 °F - 60.8 °F 73% 30.01 in - WNW 3.5 mph - N/A   Clear
7:20 PM 69.8 °F - 59.0 °F 68% 30.01 in - North 4.6 mph - N/A   Clear
7:50 PM 69.8 °F - 59.0 °F 68% 30.01 in - ESE 4.6 mph - N/A   Clear
8:00 PM 69 °F - 59 °F 63% 30.02 in 6 mi ESE 4.6 mph - -  
8:20 PM 64.4 °F - 59.0 °F 83% 30.01 in - ENE 3.5 mph - N/A   Clear
8:50 PM 62.6 °F - 57.2 °F 82% 30.01 in - ENE 3.5 mph - N/A   Clear
9:20 PM 60.8 °F - 57.2 °F 88% 30.01 in - NE 6.9 mph - N/A   Clear
9:50 PM 60.8 °F - 57.2 °F 88% 30.01 in - NE 6.9 mph - N/A   Clear
10:20 PM 59.0 °F - 57.2 °F 94% 30.01 in - NE 6.9 mph - N/A   Clear
10:50 PM 59.0 °F - 57.2 °F 94% 30.01 in - NE 6.9 mph - N/A   Clear
11:20 PM 59.0 °F - 55.4 °F 88% 30.01 in - NE 6.9 mph - N/A   Clear
11:50 PM 59.0 °F - 55.4 °F 88% 30.01 in - NE 6.9 mph - N/A   Clear